Regional Weather Roundup
Issued by NWS

Home | Current Version | Previous Version | Text Only | Print | Product List | Glossary Off
Versions: 1 2 3 4 5 6 7 8 9 10 11 12 13 14 15 16 17 18 19 20 21 22 23 24 25 26 27 28 29 30 31 32 33 34 35 36 37 38 39 40 41 42 43 44 45 46 47 48 49 50

000
ASUS43 KFSD 101410
RWRSD

WEATHER ROUNDUP FOR SOUTH DAKOTA
NATIONAL WEATHER SERVICE SIOUX FALLS SD
800 AM CST WED FEB 10 2016

NOTE: "FAIR" INDICATES FEW OR NO CLOUDS BELOW 12,000 FEET WITH NO
SIGNIFICANT WEATHER AND/OR OBSTRUCTIONS TO VISIBILITY.


SDZ001>005-009-010-012>017-101500-
NORTHWEST AND NORTH CENTRAL SOUTH DAKOTA

CITY           SKY/WX    TMP DP  RH WIND       PRES   REMARKS
BUFFALO          N/A     36  23  59 W12       29.80R
FAITH            N/A     34  25  69 W14       29.83S WCI  25
MOBRIDGE       CLOUDY    20  17  88 E8        29.84R WCI  10
$$

SDZ012>016-024>037-041>051-057-063-072>074-101500-
SOUTHWEST AND SOUTH CENTRAL SOUTH DAKOTA

CITY           SKY/WX    TMP DP  RH WIND       PRES   REMARKS
RAPID CTY ARPT CLEAR     40  24  53 NW12      29.89R
PIERRE         CLOUDY    21  19  92 CALM      29.85F
CUSTER         CLEAR     47  11  23 NW12G28   29.97S
ELLSWORTH AFB  CLEAR     48  21  35 NW16      29.88R
PHILIP         CLEAR     30  26  85 W10       29.87S WCI  21
PINE RIDGE     CLEAR     37  23  56 W9        29.96S
SPEARFISH      FAIR      50  16  25 W17G23    29.95S
WINNER         FAIR      32  25  75 W8        29.87R WCI  25
$$

SDZ004>011-016>023-039-040-101500-
NORTHEAST SOUTH DAKOTA

CITY           SKY/WX    TMP DP  RH WIND       PRES   REMARKS
ABERDEEN       LGT SNOW  17  12  80 E8        29.96S WCI   7
WATERTOWN      LGT SNOW  11   6  81 SE7       29.96S VSB 3/4 WCI   0
BROOKINGS      LGT SNOW  12   8  84 E10       29.97S FOG     WCI  -1
SISSETON         N/A      8   5  87 SE12      30.04S WCI  -7
$$

SDZ017-020-022-023-036>040-048>070-101500-
SOUTHEAST SOUTH DAKOTA

CITY           SKY/WX    TMP DP  RH WIND       PRES   REMARKS
SIOUX FALLS    LGT SNOW  17  14  88 E10       29.98F FOG     WCI   5
HURON          CLOUDY    22  18  85 SE9       29.93F WCI  12
CHAMBERLAIN    CLOUDY    22  20  93 SE6       29.88F WCI  14
MITCHELL       CLOUDY    23  19  85 SE13      29.94F WCI  11
YANKTON        CLOUDY    21  18  86 E10       29.95F WCI  10
$$

ABBREVIATIONS USED IN REMARKS
   TC - TEMPERATURE IN CELSIUS
  WCI - WIND CHILL INDEX
   HX - HEAT INDEX
  VSB - VISIBILITY




USA.gov is the U.S. government's official web portal to all federal, state and local government web resources and services.